This is the latest recevied weather packets stored in our database for station/object AI9F. If no packets are shown the sender has not sent any weather packets the latest 1 day(s).
| Time | Temp. | Humidity | Pressure | Rain* | Wind** | Luminosity | Snow |
|---|---|---|---|---|---|---|---|
| 1778050920 | 7.78° C | 97% | 1011.4 hPa | 0 mm | 0.45 m/s, 92° | 0 W/m² | - |
| 1778050618 | 7.78° C | 97% | 1011.3 hPa | 0 mm | 0 m/s | 0 W/m² | - |
| 1778050314 | 7.78° C | 97% | 1011.5 hPa | 0 mm | 0.45 m/s, 92° | 0 W/m² | - |
| 1778050012 | 7.78° C | 97% | 1011.1 hPa | 0 mm | 0 m/s | 0 W/m² | - |
| 1778049707 | 7.78° C | 97% | 1011 hPa | 1.78 mm | 0 m/s | 0 W/m² | - |
| 1778049405 | 7.78° C | 97% | 1010.9 hPa | 1.78 mm | 0 m/s | 0 W/m² | - |
| 1778049102 | 7.78° C | 97% | 1011.1 hPa | 0 mm | 0 m/s | 0 W/m² | - |
| 1778048801 | 7.78° C | 97% | 1011.5 hPa | 0 mm | 0.45 m/s, 92° | 0 W/m² | - |
| 1778048497 | 7.78° C | 97% | 1011.4 hPa | 0 mm | 0 m/s | 0 W/m² | - |
| 1778048193 | 7.78° C | 97% | 1011.5 hPa | 0 mm | 0 m/s | 0 W/m² | - |
| 1778047891 | 7.78° C | 97% | 1011.4 hPa | 0 mm | 0 m/s | 0 W/m² | - |
| 1778047589 | 7.78° C | 97% | 1011.6 hPa | 0 mm | 0 m/s | 0 W/m² | - |
| 1778047286 | 7.78° C | 97% | 1011.5 hPa | 0 mm | 0 m/s | 0 W/m² | - |
| 1778046983 | 7.78° C | 97% | 1011.3 hPa | 0 mm | 0 m/s | 0 W/m² | - |
| 1778046680 | 7.78° C | 97% | 1011.6 hPa | 0 mm | 0 m/s | 0 W/m² | - |
| 1778046377 | 7.78° C | 97% | 1011.3 hPa | 0 mm | 0 m/s | 0 W/m² | - |
| 1778046073 | 7.78° C | 97% | 1011.6 hPa | 1.27 mm | 0 m/s | 0 W/m² | - |
| 1778045771 | 7.78° C | 97% | 1011.5 hPa | 1.27 mm | 0 m/s | 0 W/m² | - |
| 1778045469 | 7.78° C | 97% | 1011.8 hPa | 1.78 mm | 0 m/s | 0 W/m² | - |
| 1778045167 | 7.78° C | 97% | 1011.6 hPa | 1.78 mm | 0 m/s | 0 W/m² | - |
| 1778044865 | 7.78° C | 96% | 1011.8 hPa | 1.78 mm | 0 m/s | 0 W/m² | - |
| 1778044561 | 7.78° C | 96% | 1011.7 hPa | 3.05 mm | 0.45 m/s, 106° | 0 W/m² | - |
| 1778044258 | 7.78° C | 96% | 1011.8 hPa | 1.27 mm | 0 m/s | 0 W/m² | - |
| 1778043955 | 7.78° C | 96% | 1011.7 hPa | 3.05 mm | 0 m/s | 0 W/m² | - |
| 1778043653 | 7.78° C | 96% | 1011.5 hPa | 4.83 mm | 0 m/s | 0 W/m² | - |
* Rain latest hour (hover to see other rain measurements)
** Current wind speed in m/s (hover to see current wind gust speed)